Back to catalog

NOAA 16 DEB

AliveSSO
NORAD 41504·DEBRIS·🇺🇸 United States

Launched Sep 21, 2000 from Vandenberg Space Force Base

Loading…

Next Passes (next 24 hours)

TLE

FreshSource: Space-Track

Epoch: Sep 11, 2026, 22:00 UTC

1 41504U 00055MC  26254.91670105  .00002621  00000-0  10725-2 0  9990
2 41504  98.7586 327.5217 0027994 224.4167 135.4768 14.27874391543870

Track NOAA 16 DEB in real time with AllMySat

Download on the App Store